Orbital Elements at Epoch 2459200.5 (2020-Dec-17.0) TDB
Reference: JPL 33 (heliocentric ecliptic J2000)
Element | Value | Uncertainty (1-sigma) | Units |
e | .07789851622203618 | 4.2396e-08 | |
a | 2.384054626464116 | 8.6748e-09 | au |
q | 2.198340308470281 | 1.0408e-07 | au |
i | 13.82568793957209 | 3.6836e-06 | deg |
node | 343.7871174989105 | 1.3875e-05 | deg |
peri | 138.8795473381102 | 2.8189e-05 | deg |
M | 341.6942859390936 | 2.2269e-05 | deg |
tp | 2459268.868634160746 (2021-Feb-23.36863416) | 8.3085e-05 | TDB |
period | 1344.536914319626 3.68 | 7.3385e-06 2.009e-08 | d yr |
n | .267750179385867 | 1.4614e-09 | deg/d |
Q | 2.569768944457952 | 9.3505e-09 | au |
|
| | Orbit Determination Parameters
Additional Information
|